Location: *
(43.6428°N, 11.5461°E)
Time: 14:43:22
(UTC+00:00)

Cosmos 1605 Rocket - Pass Details

Date: 21 October 2019
Orbit: 944 x 1006 km, 82.9° (Epoch: 13 November)

Event Time Altitude Azimuth Distance (km) Brightness Sun altitude
Rises 17:02:18 0° 355° (N) 3,665 7.0 -8.1°
Reaches altitude 10° 17:04:53 10° 359° (N) 2,706 6.3 -8.6°
Maximum altitude 17:10:58 58° 78° (ENE) 1,106 4.0 -9.7°
Drops below altitude 10° 17:16:57 10° 157° (SSE) 2,659 6.1 -10.7°
Sets 17:19:27 0° 162° (SSE) 3,597 6.8 -11.2°
